Change the Weather History Date:

Wednesday, May 22, 2013

  Actual Average Record
Temperature  
Mean Temperature 62 °F 65 °F  
Max Temperature 81 °F 78 °F 99 °F (1996)
Min Temperature 42 °F 52 °F 41 °F (1963)
Degree Days  
Heating Degree Days 3 3  
Month to date heating degree days 139 110  
Since 1 July heating degree days 5193 5172  
Cooling Degree Days 0 3  
Month to date cooling degree days 62 41  
Year to date cooling degree days 66 53  
Growing Degree Days 11 (Base 50)    
Moisture  
Dew Point 41 °F    
Average Humidity 56    
Maximum Humidity 89    
Minimum Humidity 23    
Precipitation  
Precipitation 0.00 in 0.10 in 1.38 in (1991)
Month to date precipitation 0.68 1.92  
Year to date precipitation 1.56 5.98  
Sea Level Pressure  
Sea Level Pressure 29.88 in    
Wind  
Wind Speed 7 mph (NNE)    
Max Wind Speed 15 mph    
Max Gust Speed 20 mph    
Visibility 10 miles    
Events      
T = Trace of Precipitation, MM = Missing Value Source: NWS Daily Summary

Daily Weather History Graph

Daily Weather History Graph

Search for Another Location

Airport or City:

Trip Planner

Search our weather history database for the weather conditions in past years. The results will help you decide how hot, cold, wet, or windy it might be!

Date:

Astronomy

May. 22, 2013 Rise Set
Actual Time 6:27 AM CDT 8:52 PM CDT
Civil Twilight 5:57 AM CDT 9:22 PM CDT
Nautical Twilight 5:20 AM CDT 9:59 PM CDT
Astronomical Twilight 4:39 AM CDT 10:41 PM CDT
Moon 6:19 PM CDT (5/22) 4:29 AM CDT (5/22)
Length of Visible Light 15h 25m
Length of Day
14h 25m
Waxing Gibbous, 91% of the Moon is Illuminated
May 22
Waxing Gibbous
May 24
Full
May 31
Last Quarter
Jun 8
New
Jun 16
First Quarter

Hourly Weather History & Observations

Time (CDT) Temp. Windchill Dew Point Humidity Pressure Visibility Wind Dir Wind Speed Gust Speed Precip Events Conditions
12:54 AM 51.1 °F - 39.9 °F 66% 29.86 in 10.0 mi NNE 6.9 mph - N/A   Clear
1:54 AM 48.9 °F - 39.0 °F 69% 29.86 in 10.0 mi North 4.6 mph - N/A   Clear
2:54 AM 46.9 °F - 39.0 °F 74% 29.86 in 10.0 mi NW 3.5 mph - N/A   Clear
3:54 AM 44.1 °F 40.8 °F 37.9 °F 79% 29.87 in 10.0 mi NNW 5.8 mph - N/A   Clear
4:54 AM 42.1 °F 37.7 °F 37.9 °F 85% 29.88 in 10.0 mi NNW 6.9 mph - N/A   Clear
5:54 AM 43.0 °F 38.8 °F 39.0 °F 86% 29.88 in 10.0 mi North 6.9 mph - N/A   Clear
6:54 AM 43.0 °F 39.5 °F 39.0 °F 86% 29.89 in 10.0 mi NNW 5.8 mph - N/A   Clear
7:54 AM 50.0 °F - 42.1 °F 74% 29.90 in 10.0 mi North 5.8 mph - N/A   Clear
8:54 AM 55.0 °F - 43.0 °F 64% 29.93 in 10.0 mi North 3.5 mph - N/A   Clear
9:54 AM 57.9 °F - 43.0 °F 58% 29.94 in 10.0 mi Variable 3.5 mph - N/A   Clear
10:54 AM 61.0 °F - 42.1 °F 50% 29.94 in 10.0 mi North 4.6 mph - N/A   Clear
11:54 AM 66.0 °F - 42.1 °F 42% 29.93 in 10.0 mi North 5.8 mph - N/A   Clear
12:54 PM 69.1 °F - 42.1 °F 38% 29.91 in 10.0 mi Variable 6.9 mph - N/A   Clear
1:54 PM 71.1 °F - 39.9 °F 32% 29.89 in 10.0 mi Calm Calm - N/A   Clear
2:54 PM 75.0 °F - 39.9 °F 28% 29.87 in 10.0 mi South 9.2 mph - N/A   Clear
3:54 PM 75.9 °F - 41.0 °F 29% 29.86 in 10.0 mi Variable 4.6 mph - N/A   Clear
4:54 PM 79.0 °F - 39.9 °F 25% 29.83 in 10.0 mi Variable 6.9 mph 18.4 mph N/A   Clear
5:54 PM 80.1 °F - 39.0 °F 23% 29.82 in 10.0 mi Variable 3.5 mph - N/A   Clear
6:54 PM 80.1 °F - 39.0 °F 23% 29.81 in 10.0 mi SE 4.6 mph - N/A   Clear
7:54 PM 79.0 °F - 39.9 °F 25% 29.81 in 10.0 mi East 8.1 mph - N/A   Clear
8:54 PM 72.0 °F - 42.1 °F 34% 29.83 in 10.0 mi East 9.2 mph - N/A   Clear
9:54 PM 66.9 °F - 42.1 °F 40% 29.85 in 10.0 mi East 12.7 mph - N/A   Clear
10:54 PM 64.0 °F - 43.0 °F 46% 29.89 in 10.0 mi East 13.8 mph - N/A   Clear
11:54 PM 63.0 °F - 44.1 °F 50% 29.91 in 10.0 mi East 12.7 mph - N/A   Clear